Date,TemperatureHighF,TemperatureAvgF,TemperatureLowF,DewpointHighF,DewpointAvgF,DewpointLowF,HumidityHigh,HumidityAvg,HumidityLow,PressureMaxIn,PressureMinIn,WindSpeedMaxMPH,WindSpeedAvgMPH,GustSpeedMaxMPH,PrecipitationSumIn
2013-10-1,80,64,51,66,59,49,99,86,58,30.00,29.87,7,1,8,0.00
2013-10-2,84,70,57,73,61,50,99,76,51,30.07,29.87,13,2,15,0.00
2013-10-3,80,64,52,65,56,50,96,79,42,30.10,30.00,6,1,8,0.00
2013-10-4,73,65,59,66,62,56,96,90,75,30.04,29.97,12,3,13,0.05
2013-10-5,75,65,59,66,62,57,99,88,71,30.08,30.01,13,3,14,0.07
2013-10-6,70,63,58,70,62,57,100,97,84,30.09,29.87,8,2,10,0.14
2013-10-7,79,69,56,75,66,47,100,93,76,30.14,29.56,32,4,34,0.02
2013-10-8,69,60,48,59,48,42,100,68,43,30.40,29.94,20,4,21,0.01
2013-10-9,68,55,44,56,48,42,99,80,47,30.44,30.26,13,2,13,0.00
2013-10-10,61,55,46,54,50,45,99,87,71,30.31,30.09,9,2,10,0.00
2013-10-11,76,59,48,58,51,44,97,77,39,30.18,30.03,10,3,13,0.00
2013-10-12,78,61,47,59,54,46,98,78,51,30.34,30.11,17,3,18,0.00
2013-10-13,73,62,54,56,53,47,88,74,52,30.38,30.28,11,2,12,0.00
2013-10-14,73,63,50,59,55,47,94,77,56,30.34,30.19,10,2,12,0.00
2013-10-15,76,66,60,63,58,44,94,77,62,30.23,30.05,10,2,13,0.00
2013-10-16,65,62,53,61,55,45,92,78,59,30.09,29.79,14,4,17,0.00
2013-10-17,78,68,62,66,60,53,96,77,48,29.87,29.55,16,3,20,0.05
2013-10-18,71,63,48,66,50,41,96,65,38,29.93,29.55,18,4,18,0.06
2013-10-19,69,58,47,54,47,38,89,68,42,29.93,29.67,22,4,24,0.00
2013-10-20,66,57,45,55,41,36,92,59,36,30.06,29.68,18,4,18,0.00
2013-10-21,71,58,44,49,44,39,85,62,38,30.10,29.78,18,5,20,0.00
2013-10-22,61,54,41,56,47,37,91,78,65,29.90,29.70,16,4,20,0.00
2013-10-23,58,48,38,51,40,30,97,77,48,29.80,29.59,14,2,14,0.00
2013-10-24,57,49,36,40,32,27,88,55,36,30.02,29.70,23,4,26,0.00
2013-10-25,55,47,40,39,35,31,82,65,45,30.14,29.91,21,4,23,0.00
2013-10-26,57,49,38,40,35,31,90,62,40,30.13,29.77,26,6,26,0.00
2013-10-27,58,49,37,40,35,31,89,61,41,30.09,29.77,22,3,24,0.00
2013-10-28,60,48,36,41,36,26,89,64,46,30.40,30.06,16,4,19,0.00
2013-10-29,51,42,36,34,28,26,80,62,43,30.43,30.24,12,3,13,0.00
2013-10-30,58,45,37,49,38,30,95,76,57,30.31,30.11,10,2,11,0.00
2013-10-31,68,56,37,65,55,35,100,97,88,30.19,29.44,24,5,26,0.24